Find Shiyan 30-04

NORAD ID: 68140 Int'l Des: 2026-048 Owner: SAST Country: CN operational
LEOCIRCULAR

Aktuelle Ansicht

3D-Globus wird geladen...

About Shiyan 30-04

Shiyan 30-04 (NORAD 68140) is a satellite launched Mar 12, 2026 by SAST of CN. It operates in LEO, CIRCULAR orbit with a mass of 500.00 kg.

Nächste Überflüge

Passes for default location (London). Set your location on the main map for personalized predictions.

Höhenverlauf

Loading altitude history...

Zweizeiliger Elementsatz

1 68140U 26048B 26208.18157635 .00002125 00000-0 20904-3 0 9991
2 68140 34.9926 28.1627 0003248 332.1059 27.9471 14.91863379 20340
Epoch: 27. Juli 2026 • Age: 10 hours

Aktueller Status

Höhe 592.6 km
Apogäum / Perigäum N/A
Geschwindigkeit 7.57 km/s
Subsatellitenpunkt 6.87°N, 29.27°E
Startdatum 12. März 2026
Alter 0.3 years
Typ other

Technische Details

Klassifizierung Payload
Masse 500.00 kg
Trockenmasse 500.00 kg
Gesamtmasse 500.00 kg
Länge 1.40 m
Durchmesser 1.00 m
Spannweite 4.00 m
Form Box+2 pan
Hersteller SAST
Bus-Typ SY30
Phasenstatus In Orbit
Besitzer/Staat SAST/CN

Most Searched